Content
SEND FEEDBACK

Daily
Averages
Monthly
Summary
China

CHONGQING, CHINA


Home > Asia > China
Elevation: 1151 feet     Latitude: 29 31N     Longitude: 106 29E

WEATHER
 
SELECT A DAY
Number of Records: 130,324;   Date Range: 1/29/00 - 8/31/14
 
SHARE

PRINT THIS DATA

[ ← Previous Day ]
WEATHER ALMANAC - JANUARY 31, 2013
[ Next Day → ]
[ °C ]   °F
Weather ElementAverageHighLow
Temperature51.9 °F57 °F (2:00 pm)50 °F (1:00 am)
Dewpoint45.1 °F46.4 °F (11:00 am)44 °F (2:00 am)
Humidity76.3 %87 % (10:00 pm)55 % (5:00 pm)
Barometer29.97 in30.07 in (11:00 pm)29.92 in (6:00 am)
Wind Speed4.2 mph11.2 mph (1:00 am)
Weather ElementAverage
Visibility1.3 mi
Wind DirectionESE (117.7 °)

Weather ElementTotal
Precipitation---
Heating Degree Days11.5 (Base 65)
Growing Degree Days3.5 (Base 50)
Averaged from 30 records on January 31, 2013
WEATHER CONDITIONS BREAKOUT
WIND DIRECTION BREAKOUT
WEATHER BY HOUR - JANUARY 31, 2013
[ °C ]   °F
Local TimeTemperatureDewpointHumidityBarometerVisibilityWind DirectionWind SpeedGust SpeedPrecipitationEventsConditions
1:00 AM50.0 °F44.6 °F82 %29.98 in1.0 miNorth (10°)11.2 mphMist
2:00 AM52.0 °F44.0 °F67 %29.98 in2.0 miNW (320°)2.2 mphMist
2:00 AM50.0 °F44.6 °F82 %29.95 in1.0 miNNE (20°)8.9 mphScattered Clouds
3:00 AM50.0 °F44.6 °F82 %29.95 in1.0 miNNE (20°)8.9 mphScattered Clouds
4:00 AM50.0 °F44.6 °F82 %29.95 in1.0 miNE (50°)6.7 mphScattered Clouds
5:00 AM52.0 °F44.0 °F67 %29.95 in2.0 miSSE (160°)2.2 mphMist
5:00 AM50.0 °F44.6 °F82 %29.95 in1.0 miENE (70°)4.5 mphScattered Clouds
6:00 AM50.0 °F44.6 °F82 %29.92 in0.9 miEast (80°)2.2 mphScattered Clouds
7:00 AM50.0 °F44.6 °F82 %29.95 in0.9 miSouth (190°)2.2 mphScattered Clouds
8:00 AM52.0 °F44.0 °F68 %29.98 in1.0 miSouth (180°)2.2 mphMist
8:00 AM50.0 °F44.6 °F82 %29.95 in0.8 miNNE (20°)2.2 mphScattered Clouds
9:00 AM50.0 °F44.6 °F82 %29.98 in0.7 miNorth (10°)4.5 mphScattered Clouds
10:00 AM51.8 °F44.6 °F76 %30.01 in0.9 miCalmScattered Clouds
11:00 AM54.0 °F45.0 °F63 %30.02 in1.0 miNNE (20°)2.2 mphMist
11:00 AM51.8 °F46.4 °F82 %30.01 in0.9 miVariable2.2 mphPartly Cloudy
12:00 PM51.8 °F46.4 °F82 %29.98 in0.9 miVariable2.2 mphPartly Cloudy
1:00 PM53.6 °F46.4 °F77 %29.95 in1.2 miVariable2.2 mphPartly Cloudy
2:00 PM57.0 °F46.0 °F56 %29.94 in1.0 miSE (140°)2.2 mphMist
2:00 PM53.6 °F46.4 °F77 %29.92 in1.2 miESE (110°)4.5 mphPartly Cloudy
3:00 PM53.6 °F46.4 °F77 %29.92 in1.2 miESE (110°)4.5 mphPartly Cloudy
4:00 PM53.6 °F46.4 °F77 %29.92 in1.9 miEast (90°)4.5 mphPartly Cloudy
5:00 PM57.0 °F45.0 °F55 %29.95 in1.0 miENE (70°)2.2 mphMist
5:00 PM55.4 °F46.4 °F72 %29.95 in2.5 miENE (60°)4.5 mphMist
6:00 PM53.6 °F44.6 °F72 %29.95 in2.2 miNorth (360°)6.7 mphMist
7:00 PM51.8 °F44.6 °F76 %29.98 in2.2 miNorth (360°)4.5 mphMist
8:00 PM50.0 °F44.6 °F82 %30.01 in1.9 miNNE (30°)6.7 mphMist
9:00 PM50.0 °F44.6 °F82 %30.04 in1.9 miNorth (360°)4.5 mphMist
10:00 PM50.0 °F46.4 °F87 %30.04 in1.6 miNNE (20°)2.2 mphMist
11:00 PM51.0 °F46.0 °F75 %30.07 in1.0 miNW (320°)2.2 mphMist
11:00 PM50.0 °F44.6 °F82 %30.04 in1.6 miNorth (350°)8.9 mphMist
Hourly data recorded from ZUCK, located miles away from Chongqing, China







STORIES FROM OUR PARTNERS